Location: Indian Hills
(32.9760°N, 85.9450°W)
Time: 22:38:15
(UTC+00:00)

Aureole 1 Rocket - Pass Details

Date: 09 December 2019
Orbit: 378 x 1382 km, 73.9° (Epoch: 18 January)

Event Time Altitude Azimuth Distance (km) Brightness Sun altitude
Exits shadow 10:50:53 38° 276° (W) 1,470 4.4 -21.2°
Maximum altitude 10:51:46 40° 257° (WSW) 1,461 4.5 -21.1°
Drops below altitude 10° 10:58:33 10° 191° (S) 3,127 6.7 -19.7°
Sets 11:01:43 0° 184° (S) 4,209 7.5 -19.0°
